Temperature
13 13 13 13 13 13 12 12 12 12 11 11 11 11 11 11 11 11 11 11 11 11 11 11 11 11 11 10 10 10 10 10 10 10 10 10 10 10
13 13 13 13 13 12 12 12 12 12 12 11 11 11 11 11 11 11 11 10 10 10 10 10 10 10 10 10 10 10 10 10 10 10 10 10 10 10
13 13 13 13 12 12 12 12 12 12 12 11 11 11 11 11 11 10 10 10 10 10 10 10 10 10 10 10 10 10 10 10 9 9 9 9 9 9
13 13 13 12 12 12 12 12 12 12 12 12 11 11 11 11 10 10 10 10 10 10 10 10 10 10 10 10 10 10 10 9 9 9 9 9 9 9
13 12 12 12 12 12 12 12 12 12 11 11 11 11 11 10 10 10 10 10 10 10 10 10 10 10 10 10 10 9 9 9 9 9 9 9 9 9
12 12 12 12 12 12 12 12 12 11 11 11 11 11 10 10 10 10 10 10 10 9 9 9 9 9 9 9 9 9 9 9 9 9 8 8 8 8
12 12 12 12 12 12 12 12 11 11 11 11 11 10 10 10 10 10 10 10 9 9 9 9 9 9 9 9 9 9 9 9 8 8 8 8 8 8
12 12 12 12 12 12 12 11 11 11 11 11 11 11 10 10 10 10 10 9 9 9 9 9 9 9 9 9 9 9 8 8 8 8 8 8 8 7
12 12 12 12 11 11 11 11 11 11 11 11 10 10 10 10 10 10 10 9 9 9 9 9 8 8 8 8 8 8 8 8 8 8 8 8 7 7
12 12 11 11 11 11 11 11 11 11 10 10 10 10 10 10 10 9 9 9 9 9 8 8 8 8 8 8 8 8 8 8 8 8 7 7 7 7
11 11 11 11 11 11 11 10 10 10 10 10 10 10 10 9 9 9 9 9 9 9 8 8 8 8 8 8 8 8 7 7 7 7 7 7 7 7
11 11 11 11 11 10 10 10 10 10 10 10 10 9 9 9 9 9 9 9 8 8 8 8 8 7 7 7 7 7 7 7 7 7 7 7 7 7
10 10 10 10 10 10 10 10 10 10 9 9 9 9 9 9 9 9 9 8 8 8 8 7 7 7 7 7 7 7 7 7 7 7 7 6 6 6
10 10 10 10 10 10 10 9 9 9 9 9 9 9 9 9 9 9 8 8 8 8 8 7 7 7 7 7 7 7 7 7 7 7 6 6 6 6
10 10 10 10 10 9 9 9 9 9 9 9 9 9 9 9 8 8 8 8 8 8 7 7 7 7 7 7 7 7 6 6 6 6 6 6 6 6
9 9 9 9 9 9 9 9 9 8 8 8 8 8 8 8 8 8 8 8 7 7 7 7 7 7 7 7 7 7 6 6 6 6 6 6 6 6
9 9 9 9 9 9 9 8 8 8 8 8 8 8 8 8 8 8 7 7 7 7 7 7 7 7 7 7 6 6 6 6 6 6 6 6 6 6
9 9 9 9 8 8 8 8 8 8 8 8 8 8 8 8 7 7 7 7 7 7 7 7 7 6 6 6 6 6 6 6 6 6 5 5 6 5
8 8 8 8 8 8 8 8 8 8 8 8 8 8 8 7 7 7 7 7 7 7 7 6 6 6 6 6 6 6 6 6 6 5 5 5 5 5
8 8 8 8 8 8 8 8 8 8 7 7 7 7 7 7 7 7 7 7 7 7 6 6 6 6 6 6 6 6 6 5 5 5 5 5 5 5
8 8 8 8 8 8 8 8 8 7 7 7 7 7 7 7 7 7 7 7 7 6 6 6 6 6 5 5 5 5 5 5 5 5 5 4 4 5
8 8 8 8 7 7 8 7 7 7 7 7 7 7 7 7 7 7 7 6 6 6 6 6 6 5 5 5 5 5 5 5 4 4 4 4 4 4
8 8 8 7 7 7 7 7 7 7 7 7 7 7 7 7 7 7 6 6 6 6 6 5 5 5 5 5 5 5 4 4 4 4 4 4 4 4
Wind_Speed
1 1 1 1 2 2 2 3 3 1 1 2 1 1 0 1 1 2 2 3 4 5 6 7 7 7 8 8 8 9 10 10 10 11 11 11 11 11
1 1 1 1 1 2 2 2 2 3 2 2 2 1 0 1 1 1 1 2 3 3 4 5 6 6 6 6 7 8 8 9 9 9 9 9 9 10
2 2 2 2 2 2 2 2 2 3 2 2 1 0 1 1 2 2 2 2 2 2 3 4 4 4 4 5 5 6 7 7 7 7 8 8 9 9
3 3 3 2 2 2 2 2 2 3 3 2 1 0 0 1 1 1 2 2 2 2 2 2 3 3 4 4 5 5 5 6 6 6 6 7 7 8
4 4 4 3 3 2 2 2 2 2 2 3 2 1 0 0 1 1 1 2 2 2 2 2 2 3 3 3 4 4 4 5 5 5 5 6 6 7
3 4 4 4 5 4 3 3 3 3 3 3 2 1 1 0 1 1 1 1 1 2 2 3 2 3 2 2 2 3 3 4 4 4 5 5 5 6
2 3 4 4 5 4 3 4 4 3 3 3 3 2 1 2 2 1 1 1 1 1 1 2 2 3 3 2 1 1 2 3 3 3 4 4 5 5
3 3 3 3 4 4 4 5 6 5 5 4 3 4 4 4 2 2 2 1 1 1 0 2 1 1 2 2 1 0 0 1 2 2 3 3 4 4
3 3 2 2 2 2 3 4 4 5 7 6 5 5 5 5 5 4 3 3 2 1 1 1 1 2 2 2 1 1 1 0 0 1 2 2 3 3
3 4 3 3 2 3 2 2 2 3 5 5 5 6 5 6 6 5 4 2 0 1 1 1 1 2 2 2 1 1 1 1 0 0 1 1 2 2
3 3 3 3 4 4 4 3 2 3 3 5 5 5 5 7 7 4 3 2 1 2 2 2 1 1 2 2 2 0 1 1 1 1 1 0 0 1
2 3 4 5 5 5 4 4 4 4 2 1 1 2 3 5 8 7 6 4 2 2 3 3 1 0 1 2 2 2 1 1 1 1 2 1 1 1
3 3 3 6 6 6 5 5 6 3 2 2 2 1 1 2 4 5 6 5 4 3 4 4 2 1 1 2 2 2 1 1 1 1 1 2 2 2
4 4 4 5 5 5 4 4 4 3 2 2 2 2 2 3 3 4 6 6 5 4 7 6 3 4 3 2 3 2 2 2 2 2 1 2 2 2
4 6 5 5 4 4 5 4 3 2 2 2 3 3 3 3 2 1 2 2 2 3 6 7 4 4 4 4 3 2 2 2 2 2 2 2 2 2
3 3 4 3 2 2 2 2 2 3 3 3 3 2 1 1 2 2 1 1 1 2 2 5 6 5 3 4 4 4 3 3 2 3 2 3 3 4
3 2 1 1 1 1 1 2 2 2 3 2 2 2 2 2 2 1 1 1 2 2 2 0 1 2 3 3 3 4 4 3 3 3 2 3 4 5
4 2 3 3 4 4 4 3 3 4 4 4 3 3 4 4 3 2 2 3 3 3 2 1 1 1 1 2 5 5 4 3 3 3 3 3 4 5
4 4 4 5 5 4 4 4 5 5 4 4 4 4 4 4 3 3 3 3 3 4 3 3 3 2 2 4 3 5 4 3 2 2 3 4 4 5
4 5 5 5 5 5 5 5 5 4 4 4 5 5 5 4 4 4 5 5 4 4 3 3 4 5 5 4 3 3 6 5 3 3 3 2 4 5
5 5 5 5 5 6 5 5 5 5 5 4 5 5 5 5 5 5 5 6 5 4 5 5 5 5 2 1 1 3 3 7 7 4 3 2 2 3
6 6 6 6 6 6 5 5 5 5 5 5 5 5 5 5 6 6 5 5 5 5 5 3 2 3 2 4 5 4 3 3 4 7 7 6 3 4
7 7 6 6 6 5 5 6 6 5 5 5 5 5 5 5 5 5 5 5 5 4 3 3 2 2 3 4 4 4 4 3 2 3 4 7 9 10
Wind_Direction
199 190 178 177 159 174 167 166 160 188 287 266 274 303 26 92 56 60 51 49 47 49 48 49 49 47 46 45 42 40 39 39 37 36 36 37 39 38
195 182 191 176 162 161 168 171 173 176 219 250 237 247 114 100 78 79 63 47 38 42 47 49 47 46 44 42 41 39 39 37 34 33 33 33 36 38
215 194 207 177 167 169 161 156 161 160 197 263 242 226 132 107 57 68 58 42 25 33 42 46 47 47 44 41 37 37 37 34 31 30 30 32 37 39
221 207 217 188 187 187 176 177 179 174 173 200 226 245 219 184 116 93 56 46 32 20 40 43 45 45 40 38 35 32 31 29 26 26 28 33 36 37
213 208 215 187 203 209 198 190 184 169 162 170 195 192 194 148 83 62 57 43 36 31 31 25 32 39 39 38 35 28 26 25 21 19 25 28 28 31
215 212 211 202 208 206 204 195 168 147 146 157 168 176 185 176 124 125 14 5 352 19 20 18 17 21 16 25 27 25 25 22 19 21 24 25 26 29
229 223 221 215 212 204 202 187 165 154 154 162 173 179 192 183 197 186 187 328 321 330 358 1 11 15 3 349 347 13 25 24 27 32 30 32 31 29
224 233 235 219 219 215 206 179 167 166 173 173 189 195 209 201 188 181 168 151 275 242 197 304 9 320 335 340 311 283 44 21 26 29 34 41 39 33
217 215 229 232 214 201 201 178 188 192 182 176 187 206 203 198 182 188 194 205 229 220 157 280 308 286 311 316 281 216 191 132 30 25 38 47 40 31
222 215 210 219 205 181 167 168 204 219 211 197 200 210 207 191 186 189 189 183 239 226 173 221 279 286 305 330 310 204 199 202 171 139 15 33 39 39
234 224 210 211 210 178 162 184 224 260 241 228 225 222 217 197 173 145 152 158 225 248 199 190 242 303 313 299 319 287 197 205 226 241 249 247 72 44
245 241 228 219 214 189 174 182 215 242 233 234 228 217 198 189 187 185 183 184 192 230 205 184 197 184 299 285 297 310 300 260 250 241 244 241 202 105
224 241 242 229 218 207 194 195 219 210 186 193 203 214 200 201 200 200 197 190 192 222 197 176 189 204 214 274 303 297 277 279 272 242 245 248 231 195
219 231 234 223 212 203 202 218 213 168 153 172 199 225 228 234 228 213 210 215 220 223 195 183 192 197 198 236 264 279 283 269 231 223 241 257 243 224
220 223 223 209 198 201 210 205 178 165 173 201 223 233 232 224 207 194 204 208 242 239 208 210 202 192 197 214 225 235 260 270 234 228 240 240 239 233
217 214 197 182 178 196 204 205 191 194 199 218 229 230 221 215 214 205 213 201 257 289 250 224 210 195 211 220 217 228 222 224 234 235 236 250 249 233
171 134 143 155 191 222 231 224 218 212 220 224 218 221 227 229 238 214 199 197 222 243 264 300 177 201 218 208 220 227 224 233 233 222 222 251 259 248
157 175 199 207 212 217 222 228 227 228 227 223 220 220 222 223 231 231 214 211 228 237 232 211 143 54 343 287 225 220 224 231 231 219 214 232 261 263
180 202 211 215 221 222 224 227 233 234 225 224 229 229 226 224 225 228 222 227 238 231 224 203 191 187 226 269 271 220 214 221 210 224 229 230 249 266
210 214 220 222 224 224 226 230 234 231 228 232 234 231 224 223 229 230 225 225 226 226 226 215 213 211 218 232 245 262 220 212 209 225 239 257 269 282
221 226 225 223 225 226 228 229 228 227 228 229 232 230 227 227 232 231 228 224 220 221 230 236 233 209 188 139 248 264 253 228 222 221 214 238 278 284
222 225 227 226 224 225 226 226 228 228 225 229 235 233 228 223 224 222 220 221 224 225 236 240 194 177 194 219 237 249 259 266 246 238 234 227 221 232
226 225 226 226 225 223 222 222 223 227 228 230 230 227 224 223 221 216 216 219 223 224 224 227 214 212 223 220 232 247 251 251 254 266 270 260 253 256
Height
1536 1536 1536 1536 1535 1536 1536 1536 1536 1535 1535 1535 1535 1535 1535 1535 1534 1534 1534 1533 1532 1531 1530 1529 1528 1528 1527 1526 1525 1525 1524 1523 1522 1521 1520 1519 1518 1517
1534 1534 1534 1534 1534 1534 1534 1534 1535 1535 1534 1533 1534 1534 1534 1534 1534 1533 1533 1532 1532 1531 1530 1529 1528 1528 1527 1526 1525 1525 1524 1523 1522 1521 1520 1519 1518 1517
1533 1533 1533 1533 1532 1532 1533 1533 1533 1533 1532 1532 1532 1533 1532 1532 1532 1532 1532 1531 1531 1531 1530 1529 1528 1527 1527 1526 1525 1524 1524 1523 1522 1521 1520 1519 1518 1517
1531 1531 1531 1531 1530 1531 1531 1531 1531 1530 1530 1530 1530 1531 1531 1531 1531 1531 1531 1530 1530 1529 1529 1528 1528 1527 1526 1525 1525 1524 1523 1522 1521 1521 1520 1519 1518 1517
1529 1529 1529 1529 1528 1529 1529 1529 1529 1528 1528 1528 1528 1529 1529 1529 1529 1529 1529 1529 1529 1528 1528 1528 1527 1526 1526 1525 1524 1523 1522 1521 1521 1520 1519 1518 1518 1517
1527 1527 1527 1527 1526 1526 1526 1526 1526 1526 1526 1526 1526 1526 1527 1527 1528 1527 1527 1527 1527 1527 1527 1527 1526 1525 1525 1524 1523 1522 1521 1521 1520 1519 1519 1518 1517 1516
1524 1524 1524 1524 1524 1524 1524 1524 1524 1524 1524 1524 1524 1524 1524 1525 1525 1525 1525 1525 1525 1525 1525 1525 1524 1524 1523 1523 1522 1521 1520 1520 1519 1518 1517 1517 1516 1515
1521 1521 1521 1522 1522 1522 1522 1522 1522 1522 1521 1521 1521 1521 1522 1522 1523 1523 1523 1523 1523 1524 1523 1522 1522 1522 1521 1521 1520 1520 1519 1518 1517 1517 1516 1515 1514 1514
1518 1518 1518 1519 1519 1519 1519 1519 1519 1519 1520 1520 1519 1519 1520 1520 1520 1521 1521 1521 1521 1521 1521 1520 1520 1519 1519 1519 1519 1518 1517 1516 1516 1515 1514 1514 1513 1512
1515 1515 1515 1516 1516 1516 1517 1517 1517 1517 1517 1517 1517 1517 1518 1518 1518 1519 1519 1518 1518 1519 1518 1518 1517 1517 1517 1517 1517 1516 1515 1515 1514 1513 1513 1512 1511 1510
1512 1512 1512 1513 1513 1513 1514 1514 1514 1514 1514 1514 1515 1515 1514 1515 1515 1515 1515 1515 1515 1515 1515 1515 1514 1514 1514 1514 1514 1514 1513 1512 1512 1511 1510 1510 1509 1508
1508 1509 1509 1509 1510 1510 1510 1510 1510 1510 1511 1511 1511 1511 1511 1511 1512 1512 1512 1512 1512 1512 1512 1512 1512 1512 1511 1511 1511 1511 1510 1510 1509 1508 1508 1507 1506 1505
1504 1504 1505 1506 1506 1506 1507 1507 1507 1507 1507 1507 1507 1507 1507 1507 1508 1508 1509 1509 1509 1509 1510 1509 1509 1509 1509 1508 1508 1508 1507 1507 1506 1505 1505 1504 1503 1502
1500 1501 1501 1502 1502 1503 1503 1503 1503 1503 1503 1503 1504 1504 1504 1504 1504 1504 1505 1505 1506 1506 1506 1506 1505 1505 1505 1504 1504 1504 1504 1503 1503 1502 1501 1500 1500 1499
1496 1497 1498 1498 1498 1499 1499 1499 1499 1499 1499 1499 1499 1500 1500 1500 1500 1501 1501 1501 1501 1502 1502 1502 1502 1501 1501 1500 1500 1499 1499 1499 1499 1498 1497 1497 1496 1495
1492 1493 1494 1494 1494 1495 1495 1495 1495 1495 1495 1495 1496 1496 1496 1496 1496 1496 1496 1496 1497 1497 1497 1497 1497 1497 1496 1496 1496 1495 1495 1495 1494 1494 1493 1493 1492 1491
1487 1488 1488 1489 1489 1490 1490 1491 1491 1491 1491 1491 1491 1491 1491 1492 1492 1492 1492 1492 1492 1492 1492 1492 1492 1492 1492 1492 1491 1490 1490 1490 1490 1490 1489 1488 1488 1487
1482 1482 1483 1484 1484 1485 1485 1486 1486 1486 1486 1487 1487 1487 1487 1487 1487 1487 1487 1488 1487 1487 1487 1487 1487 1487 1487 1486 1487 1486 1486 1485 1485 1485 1484 1483 1482 1482
1477 1477 1478 1479 1479 1480 1480 1480 1481 1481 1482 1482 1482 1482 1482 1482 1482 1482 1482 1482 1482 1482 1483 1483 1482 1482 1481 1481 1481 1482 1481 1481 1480 1480 1479 1479 1478 1477
1471 1472 1473 1474 1474 1474 1475 1475 1475 1476 1476 1476 1476 1476 1477 1477 1476 1476 1477 1477 1477 1477 1477 1477 1477 1477 1477 1477 1476 1476 1477 1477 1476 1475 1474 1474 1473 1473
1466 1467 1467 1468 1468 1469 1469 1470 1470 1470 1470 1471 1471 1471 1471 1471 1471 1471 1471 1471 1472 1472 1472 1472 1473 1474 1473 1473 1472 1471 1472 1472 1472 1471 1470 1469 1468 1467
1460 1461 1462 1462 1463 1463 1464 1464 1464 1465 1465 1465 1465 1465 1465 1465 1465 1465 1465 1466 1466 1466 1467 1467 1468 1468 1468 1467 1466 1466 1466 1467 1467 1467 1466 1466 1464 1462
1454 1455 1456 1456 1457 1458 1458 1458 1459 1459 1459 1459 1459 1459 1459 1459 1459 1460 1460 1461 1461 1461 1461 1461 1462 1462 1462 1462 1462 1461 1461 1461 1461 1460 1460 1460 1460 1459